Location: Châteauvieux
(47.2310°N, 1.3828°E)
Time: 23:34:34
(UTC+00:00)

Cosmos 1725 Rocket - Pass Details

Date: 15 May 2026
Orbit: 960 x 991 km, 82.9° (Epoch: 11 June)

Event Time Altitude Azimuth Distance (km) Brightness Sun altitude
Rises 20:25:39 0° 196° (SSW) 3,675 6.8 -9.3°
Reaches altitude 10° 20:28:12 10° 199° (SSW) 2,727 6.1 -9.6°
Maximum altitude 20:34:24 65° 281° (WNW) 1,068 4.5 -10.4°
Drops below altitude 10° 20:40:36 10° 4° (N) 2,724 6.9 -11.2°
Sets 20:43:09 0° 7° (N) 3,671 7.6 -11.5°
